Showing default

DODECAPOLE 2, 1510

Orbit data source: Space-Track

DODECAPOLE 2, 1510 is a payload satellite owned by NRL (US) in LEO that was launched on Fri, 13 Aug 1965 UTC via a THOR ABLESTAR launch vehicle from the Air Force Western Test Range (AFWTR). Payload-class satellites include a variety of spacecraft equipped with specific instruments for various scientific and technological missions. These include communications satellites like Starlink; space stations such as the ISS; scientific satellites like the Hubble; Earth observation satellites from companies like Planet Labs, Umbra, and HawkEye 360; GPS; miniature CubeSats for education and research; and military/defense satellites.

Loading next visibility...
Identifier
1510, 1965-065C
Orbit
LEO
Country
Flag of USUS
Related business
Manufacturer
NRL
Mission
Spacecraft
Bus & Motor
NRL 9", Unknown motor
Mass
4 kg wet, 4 kg dry
Launch date (UTC)
1965-08-13 (60 years ago)
Launch vehicle
THOR ABLESTAR
Launch site
Air Force Western Test Range (AFWTR)
Object type
Payload
Rocket body
Debris
Shape & HBR
Unknown
Radar Cross Section
Large (>1 m²)

Expand to show TLE details & history
Last TLE update: 7 hours ago

TLE from 7 hours ago
0 DODECAPOLE 2
1 01510U 65065C   25355.56538702  .00003055  00000-0  17223-2 0  9995
2 01510  90.0609  23.7395 0036986  36.9491 323.4230 14.09794467  8125
Epoch: 2025-12-21T13:34Z
TLE epoch observation values (Epoch: 2025-12-21T13:34:09.438Z)
Latitude
-0.00006°
Longitude
89.82417°
Altitude
841.647 km
Speed
7.443 km/s
True Right ascension
01h 34m 57s
True Declination
0° 00' 00"
Sunlit
Object was in daylight at epoch
Visualization orbit readout
Latitude
Unknown
Longitude
Unknown
Altitude
Unknown
Speed
Unknown
Apparent Right ascension
Unknown
Apparent Declination
Unknown
Sunlit
N/A
Visualization observer readout
Local Sidereal Time
19:42:21
Azimuth
Unknown
Elevation
Unknown
Doppler factor
Unknown
Orbital elements
Apogee altitude
883.798 km
Perigee altitude
830.278 km
Semi-major axis
7,235.175 km
Eccentricity
0.0037
Inclination
90.0609°
RAAN
23.7395°
Arg. of periapsis
36.9491°
True anomaly
323.1695°
Mean anomaly
323.423°
Eccentric anomaly
323.29634°
Mean motion
3.52671 °/min
Orbital period
102.08 mins
BSTAR
0.0017223
Loading maneuver chart data...
Computing Atmospheric mass density...
Loading historical data...
Loading historical data...
Loading historical data...
Loading historical data...
Loading historical data...
Loading historical data...
Loading historical data...

Documentation

Showing up to 5 results
|